| time (UTC) | temp F | wind direction | speed MPH | gust MPH | rain 1hr in | rain 24hr in | rain mn in | humidity % | barometer mb |
| 20260502202002 | 68 | 49 | 7.0 | 17.0 | 0.00 | 0.10 | 0.05 | 34 | 1015.2 |
| 20260502201503 | 69 | 13 | 8.0 | 17.0 | 0.00 | 0.10 | 0.05 | 34 | 1015.2 |
| 20260502201004 | 68 | 61 | 10.0 | 15.0 | 0.00 | 0.10 | 0.05 | 32 | 1015.1 |
| 20260502200502 | 68 | 12 | 7.0 | 13.0 | 0.00 | 0.10 | 0.05 | 33 | 1015.2 |
| 20260502200007 | 67 | 18 | 2.0 | 16.0 | 0.00 | 0.10 | 0.05 | 32 | 1015.2 |
| 20260502195503 | 67 | 36 | 9.0 | 17.0 | 0.00 | 0.10 | 0.05 | 34 | 1015.3 |
| 20260502195005 | 67 | 340 | 8.0 | 18.0 | 0.00 | 0.11 | 0.05 | 34 | 1015.3 |
| 20260502194504 | 67 | 32 | 10.0 | 18.0 | 0.00 | 0.11 | 0.05 | 37 | 1015.3 |
| 20260502194003 | 67 | 323 | 9.0 | 17.0 | 0.00 | 0.11 | 0.05 | 33 | 1015.2 |
| 20260502193507 | 67 | 333 | 8.0 | 17.0 | 0.00 | 0.11 | 0.05 | 35 | 1015.2 |
| 20260502193003 | 67 | 24 | 9.0 | 19.0 | 0.00 | 0.11 | 0.05 | 35 | 1015.3 |
| 20260502192503 | 67 | 64 | 7.0 | 19.0 | 0.00 | 0.11 | 0.05 | 34 | 1015.3 |
| 20260502192003 | 67 | 22 | 12.0 | 18.0 | 0.00 | 0.11 | 0.05 | 34 | 1015.2 |
| 20260502191503 | 67 | 45 | 6.0 | 20.0 | 0.00 | 0.11 | 0.05 | 40 | 1015.4 |
| 20260502191004 | 67 | 67 | 7.0 | 20.0 | 0.00 | 0.11 | 0.05 | 36 | 1015.2 |
| 20260502190503 | 67 | 330 | 12.0 | 17.0 | 0.00 | 0.11 | 0.05 | 37 | 1015.1 |
| 20260502190004 | 67 | 321 | 8.0 | 20.0 | 0.00 | 0.11 | 0.05 | 37 | 1015.2 |
| 20260502185503 | 66 | 315 | 6.0 | 20.0 | 0.00 | 0.11 | 0.05 | 38 | 1015.3 |
| 20260502185003 | 67 | 84 | 8.0 | 20.0 | 0.00 | 0.11 | 0.05 | 37 | 1015.4 |
| 20260502184505 | 67 | 72 | 4.0 | 23.0 | 0.00 | 0.11 | 0.05 | 40 | 1015.5 |
| 20260502184003 | 66 | 317 | 10.0 | 23.0 | 0.00 | 0.11 | 0.05 | 37 | 1015.4 |
| 20260502183503 | 66 | 61 | 8.0 | 17.0 | 0.00 | 0.11 | 0.05 | 38 | 1015.4 |
| 20260502183016 | 66 | 80 | 9.0 | 17.0 | 0.00 | 0.11 | 0.05 | 39 | 1015.5 |
| 20260502182504 | 66 | 26 | 6.0 | 17.0 | 0.00 | 0.11 | 0.05 | 38 | 1015.4 |
| 20260502182004 | 66 | 11 | 4.0 | 18.0 | 0.00 | 0.11 | 0.05 | 39 | 1015.5 |
| 20260502181504 | 66 | 360 | 8.0 | 20.0 | 0.00 | 0.11 | 0.05 | 36 | 1015.5 |
| 20260502181005 | 66 | 19 | 9.0 | 20.0 | 0.00 | 0.11 | 0.05 | 38 | 1015.6 |
| 20260502180504 | 66 | 322 | 4.0 | 19.0 | 0.00 | 0.11 | 0.05 | 43 | 1015.6 |
| 20260502170506 | 64 | 9 | 8.0 | 17.0 | 0.00 | 0.11 | 0.05 | 43 | 1015.5 |
| 20260502164003 | 64 | 45 | 7.0 | 15.0 | 0.01 | 0.11 | 0.05 | 52 | 1015.5 |
| 20260502163503 | 64 | 360 | 9.0 | 15.0 | 0.01 | 0.11 | 0.05 | 49 | 1015.5 |
| 20260502163008 | 64 | 17 | 5.0 | 17.0 | 0.01 | 0.11 | 0.05 | 51 | 1015.5 |
| 20260502162504 | 64 | 335 | 7.0 | 15.0 | 0.01 | 0.11 | 0.05 | 50 | 1015.5 |
| 20260502162007 | 64 | 84 | 5.0 | 14.0 | 0.01 | 0.11 | 0.05 | 53 | 1015.4 |
| 20260502161513 | 64 | 15 | 6.0 | 11.0 | 0.01 | 0.11 | 0.05 | 51 | 1015.4 |
| 20260502161010 | 63 | 48 | 5.0 | 12.0 | 0.01 | 0.11 | 0.05 | 53 | 1015.3 |
| 20260502160510 | 63 | 46 | 5.0 | 13.0 | 0.01 | 0.11 | 0.05 | 53 | 1015.3 |
| 20260502152006 | 62 | 88 | 8.0 | 15.0 | 0.00 | 0.10 | 0.04 | 57 | 1015.3 |
| 20260502151504 | 62 | 340 | 4.0 | 15.0 | 0.00 | 0.10 | 0.04 | 59 | 1015.3 |
| 20260502151006 | 61 | 5 | 8.0 | 15.0 | 0.00 | 0.10 | 0.04 | 56 | 1015.4 |
| 20260502150506 | 62 | 335 | 8.0 | 14.0 | 0.00 | 0.10 | 0.04 | 60 | 1015.5 |
| 20260502130502 | 53 | 40 | 4.0 | 8.0 | 0.00 | 0.10 | 0.04 | 79 | 1014.3 |
| 20260502123502 | 52 | 44 | 3.0 | 8.0 | 0.00 | 0.10 | 0.04 | 82 | 1014.0 |
| 20260502123006 | 52 | 49 | 2.0 | 7.0 | 0.00 | 0.10 | 0.04 | 83 | 1013.9 |
| 20260502122502 | 52 | 70 | 2.0 | 6.0 | 0.00 | 0.10 | 0.04 | 83 | 1013.9 |
| 20260502122004 | 52 | 9 | 2.0 | 9.0 | 0.00 | 0.10 | 0.04 | 84 | 1013.8 |
| 20260502121505 | 52 | 23 | 3.0 | 9.0 | 0.00 | 0.10 | 0.04 | 83 | 1013.7 |
| 20260502121004 | 52 | 22 | 2.0 | 7.0 | 0.00 | 0.10 | 0.04 | 84 | 1013.6 |
| 20260502120504 | 52 | 56 | 3.0 | 8.0 | 0.00 | 0.10 | 0.04 | 85 | 1013.5 |
| 20260502115507 | 52 | 336 | 2.0 | 10.0 | 0.00 | 0.10 | 0.04 | 86 | 1013.3 |
| 20260502115003 | 52 | 49 | 4.0 | 10.0 | 0.00 | 0.10 | 0.04 | 86 | 1013.4 |
| 20260502114504 | 52 | 39 | 4.0 | 9.0 | 0.00 | 0.10 | 0.04 | 86 | 1013.2 |
| 20260502114003 | 52 | 39 | 3.0 | 9.0 | 0.00 | 0.10 | 0.04 | 87 | 1013.3 |
| 20260502113504 | 52 | 11 | 5.0 | 9.0 | 0.00 | 0.10 | 0.04 | 87 | 1013.3 |
| 20260502113004 | 52 | 340 | 4.0 | 9.0 | 0.00 | 0.10 | 0.04 | 86 | 1013.0 |
| 20260502112502 | 52 | 61 | 2.0 | 4.0 | 0.00 | 0.10 | 0.04 | 86 | 1012.9 |
| 20260502112003 | 52 | 30 | 3.0 | 7.0 | 0.00 | 0.10 | 0.04 | 86 | 1013.0 |
| 20260502111503 | 52 | 63 | 2.0 | 7.0 | 0.00 | 0.10 | 0.04 | 86 | 1012.6 |
| 20260502111004 | 52 | 46 | 3.0 | 5.0 | 0.00 | 0.10 | 0.04 | 86 | 1012.9 |
| 20260502110504 | 52 | 44 | 1.0 | 4.0 | 0.00 | 0.10 | 0.04 | 85 | 1013.0 |
| 20260502110004 | 52 | 48 | 1.0 | 5.0 | 0.00 | 0.10 | 0.04 | 85 | 1012.9 |
| 20260502105503 | 52 | 40 | 1.0 | 8.0 | 0.00 | 0.10 | 0.04 | 85 | 1013.2 |
| 20260502105003 | 52 | 52 | 4.0 | 11.0 | 0.00 | 0.10 | 0.04 | 84 | 1013.1 |
| 20260502104528 | 52 | 32 | 3.0 | 11.0 | 0.00 | 0.10 | 0.04 | 84 | 1012.8 |
| 20260502104002 | 52 | 9 | 3.0 | 10.0 | 0.00 | 0.10 | 0.04 | 85 | 1012.4 |
| 20260502103503 | 52 | 57 | 4.0 | 10.0 | 0.00 | 0.10 | 0.04 | 85 | 1012.6 |
| 20260502103007 | 52 | 42 | 4.0 | 8.0 | 0.00 | 0.10 | 0.04 | 85 | 1013.0 |
| 20260502102507 | 52 | 41 | 3.0 | 7.0 | 0.00 | 0.10 | 0.04 | 86 | 1013.1 |
| 20260502102003 | 53 | 40 | 3.0 | 11.0 | 0.00 | 0.10 | 0.04 | 86 | 1012.8 |
| 20260502101504 | 53 | 88 | 5.0 | 11.0 | 0.00 | 0.10 | 0.04 | 86 | 1012.5 |
| 20260502101004 | 53 | 58 | 3.0 | 8.0 | 0.00 | 0.10 | 0.04 | 87 | 1012.5 |
| 20260502100503 | 53 | 67 | 4.0 | 7.0 | 0.00 | 0.10 | 0.04 | 87 | 1012.8 |
| 20260502091520 | 54 | 5 | 0.0 | 3.0 | 0.02 | 0.10 | 0.04 | 88 | 1014.1 |
| 20260502091005 | 54 | 313 | 1.0 | 5.0 | 0.02 | 0.10 | 0.04 | 88 | 1014.0 |
| 20260502090504 | 54 | 271 | 2.0 | 5.0 | 0.02 | 0.10 | 0.04 | 88 | 1013.7 |
| 20260502071536 | 55 | 259 | 2.0 | 4.0 | 0.01 | 0.13 | 0.01 | 88 | 1013.8 |
| 20260502071004 | 55 | 259 | 2.0 | 3.0 | 0.00 | 0.12 | 0.00 | 88 | 1013.7 |
| 20260502070510 | 55 | 252 | 2.0 | 3.0 | 0.00 | 0.12 | 0.00 | 88 | 1013.8 |
| 20260502070017 | 55 | 238 | 2.0 | 3.0 | 0.00 | 0.12 | 0.00 | 88 | 1013.9 |
| 20260502065505 | 55 | 258 | 2.0 | 3.0 | 0.00 | 0.13 | 0.00 | 88 | 1013.8 |
| 20260502065009 | 55 | 279 | 1.0 | 3.0 | 0.00 | 0.13 | 0.00 | 88 | 1013.7 |
| 20260502064514 | 55 | 285 | 1.0 | 3.0 | 0.00 | 0.13 | 0.00 | 88 | 1013.7 |
| 20260502064007 | 55 | 281 | 2.0 | 3.0 | 0.00 | 0.14 | 0.00 | 88 | 1013.8 |
| 20260502063507 | 55 | 282 | 1.0 | 3.0 | 0.00 | 0.14 | 0.00 | 88 | 1013.8 |
| 20260502063008 | 55 | 325 | 2.0 | 3.0 | 0.00 | 0.14 | 0.00 | 88 | 1013.6 |
| 20260502062504 | 55 | 287 | 2.0 | 3.0 | 0.00 | 0.14 | 0.00 | 88 | 1013.6 |
| 20260502062006 | 55 | 286 | 0.0 | 2.0 | 0.00 | 0.14 | 0.00 | 88 | 1013.5 |
| 20260502061510 | 55 | 286 | 0.0 | 2.0 | 0.00 | 0.14 | 0.00 | 88 | 1013.5 |
| 20260502061004 | 55 | 286 | 1.0 | 3.0 | 0.00 | 0.14 | 0.00 | 89 | 1013.7 |
| 20260502060507 | 55 | 281 | 1.0 | 3.0 | 0.00 | 0.14 | 0.00 | 88 | 1013.8 |
| 20260502060016 | 55 | 314 | 1.0 | 2.0 | 0.00 | 0.14 | 0.00 | 88 | 1013.6 |
| 20260502055508 | 55 | 290 | 1.0 | 2.0 | 0.00 | 0.14 | 0.00 | 88 | 1013.5 |
| 20260502055008 | 55 | 290 | 0.0 | 2.0 | 0.00 | 0.14 | 0.00 | 88 | 1013.6 |
| 20260502054521 | 55 | 290 | 1.0 | 1.0 | 0.00 | 0.14 | 0.00 | 88 | 1013.7 |
| 20260502054005 | 55 | 290 | 1.0 | 2.0 | 0.00 | 0.14 | 0.00 | 88 | 1013.6 |
| 20260502053504 | 55 | 290 | 0.0 | 2.0 | 0.00 | 0.14 | 0.00 | 88 | 1013.7 |
| 20260502053022 | 55 | 290 | 0.0 | 2.0 | 0.00 | 0.14 | 0.00 | 88 | 1013.6 |
| 20260502052507 | 55 | 290 | 0.0 | 2.0 | 0.00 | 0.14 | 0.00 | 88 | 1013.5 |
| 20260502052009 | 55 | 290 | 0.0 | 1.0 | 0.00 | 0.14 | 0.00 | 88 | 1013.6 |
| 20260502051517 | 55 | 290 | 0.0 | 2.0 | 0.00 | 0.14 | 0.00 | 88 | 1013.9 |
| 20260502051003 | 55 | 290 | 0.0 | 2.0 | 0.00 | 0.14 | 0.00 | 88 | 1014.1 |
| 20260502050506 | 55 | 290 | 0.0 | 2.0 | 0.00 | 0.14 | 0.00 | 88 | 1013.9 |
| 20260502050015 | 55 | 290 | 0.0 | 2.0 | 0.00 | 0.14 | 0.00 | 87 | 1014.0 |
| 20260502045508 | 55 | 290 | 0.0 | 2.0 | 0.00 | 0.14 | 0.14 | 87 | 1014.0 |
| 20260502045008 | 55 | 290 | 0.0 | 3.0 | 0.00 | 0.14 | 0.14 | 88 | 1013.9 |
| 20260502044516 | 55 | 290 | 1.0 | 3.0 | 0.00 | 0.14 | 0.14 | 88 | 1013.7 |
| 20260502044010 | 55 | 60 | 0.0 | 3.0 | 0.00 | 0.14 | 0.14 | 88 | 1013.5 |
| 20260502043508 | 55 | 60 | 0.0 | 0.0 | 0.00 | 0.14 | 0.14 | 88 | 1013.6 |
| 20260502043014 | 55 | 60 | 0.0 | 0.0 | 0.00 | 0.14 | 0.14 | 88 | 1013.6 |
| 20260502042507 | 55 | 60 | 0.0 | 0.0 | 0.00 | 0.14 | 0.14 | 88 | 1013.6 |
| 20260502042008 | 55 | 60 | 0.0 | 0.0 | 0.00 | 0.14 | 0.14 | 88 | 1013.6 |
| 20260502041503 | 55 | 60 | 0.0 | 0.0 | 0.00 | 0.14 | 0.14 | 87 | 1013.7 |
| 20260502041001 | 55 | 60 | 0.0 | 1.0 | 0.00 | 0.14 | 0.14 | 87 | 1013.6 |
| 20260502040501 | 55 | 60 | 0.0 | 2.0 | 0.00 | 0.14 | 0.14 | 87 | 1013.5 |
| 20260502040003 | 55 | 60 | 1.0 | 3.0 | 0.00 | 0.14 | 0.14 | 87 | 1013.5 |
| 20260502035502 | 55 | 60 | 1.0 | 3.0 | 0.01 | 0.14 | 0.14 | 87 | 1013.4 |
| 20260502035002 | 55 | 60 | 2.0 | 3.0 | 0.01 | 0.14 | 0.14 | 87 | 1013.3 |
| 20260502034503 | 55 | 60 | 1.0 | 2.0 | 0.01 | 0.14 | 0.14 | 87 | 1013.4 |
| 20260502034003 | 55 | 60 | 0.0 | 2.0 | 0.01 | 0.14 | 0.14 | 87 | 1013.4 |
| 20260502033504 | 55 | 60 | 1.0 | 2.0 | 0.01 | 0.14 | 0.14 | 87 | 1013.5 |
| 20260502033003 | 55 | 60 | 1.0 | 2.0 | 0.01 | 0.14 | 0.14 | 87 | 1013.6 |
| 20260502032501 | 55 | 60 | 1.0 | 3.0 | 0.01 | 0.14 | 0.14 | 87 | 1013.5 |
| 20260502032003 | 55 | 60 | 1.0 | 3.0 | 0.01 | 0.14 | 0.14 | 87 | 1013.4 |
| 20260502031504 | 56 | 65 | 1.0 | 2.0 | 0.01 | 0.14 | 0.14 | 87 | 1013.4 |
| 20260502031002 | 56 | 360 | 1.0 | 2.0 | 0.01 | 0.14 | 0.14 | 87 | 1013.6 |
| 20260502030503 | 56 | 360 | 1.0 | 2.0 | 0.01 | 0.14 | 0.14 | 87 | 1013.7 |
| 20260502030004 | 56 | 323 | 1.0 | 2.0 | 0.02 | 0.14 | 0.14 | 87 | 1013.8 |
| 20260502025502 | 56 | 313 | 0.0 | 2.0 | 0.01 | 0.13 | 0.13 | 87 | 1013.8 |
| 20260502025001 | 56 | 313 | 0.0 | 2.0 | 0.01 | 0.13 | 0.13 | 87 | 1013.9 |
| 20260502024502 | 56 | 313 | 0.0 | 2.0 | 0.01 | 0.13 | 0.13 | 87 | 1014.1 |
| 20260502024002 | 56 | 292 | 0.0 | 2.0 | 0.01 | 0.13 | 0.13 | 87 | 1014.1 |
| 20260502023502 | 56 | 292 | 0.0 | 2.0 | 0.02 | 0.13 | 0.13 | 87 | 1014.1 |
| 20260502023004 | 56 | 333 | 1.0 | 3.0 | 0.02 | 0.13 | 0.13 | 87 | 1014.3 |
| 20260502022504 | 56 | 333 | 2.0 | 3.0 | 0.02 | 0.13 | 0.13 | 87 | 1014.4 |
| 20260502022004 | 56 | 317 | 2.0 | 3.0 | 0.03 | 0.13 | 0.13 | 87 | 1014.4 |
| 20260502021505 | 57 | 329 | 1.0 | 3.0 | 0.03 | 0.13 | 0.13 | 87 | 1014.6 |
| 20260502021003 | 57 | 293 | 0.0 | 2.0 | 0.03 | 0.13 | 0.13 | 87 | 1014.6 |
| 20260502020503 | 57 | 294 | 0.0 | 2.0 | 0.03 | 0.13 | 0.13 | 87 | 1014.5 |
| 20260502020008 | 57 | 307 | 1.0 | 3.0 | 0.02 | 0.12 | 0.12 | 87 | 1014.4 |
| 20260502015503 | 57 | 307 | 1.0 | 2.0 | 0.02 | 0.12 | 0.12 | 87 | 1014.5 |
| 20260502015007 | 57 | 293 | 1.0 | 2.0 | 0.02 | 0.12 | 0.12 | 87 | 1014.5 |
| 20260502014514 | 57 | 289 | 0.0 | 2.0 | 0.02 | 0.12 | 0.12 | 87 | 1014.5 |
| 20260502014002 | 57 | 289 | 1.0 | 3.0 | 0.02 | 0.12 | 0.12 | 87 | 1014.5 |
| 20260502013502 | 57 | 289 | 1.0 | 3.0 | 0.01 | 0.11 | 0.11 | 86 | 1014.5 |
| 20260502013004 | 57 | 303 | 2.0 | 3.0 | 0.01 | 0.11 | 0.11 | 86 | 1014.4 |
| 20260502012502 | 57 | 263 | 1.0 | 2.0 | 0.01 | 0.11 | 0.11 | 86 | 1014.3 |
| 20260502012003 | 57 | 271 | 1.0 | 2.0 | 0.00 | 0.10 | 0.10 | 86 | 1014.3 |
| 20260502011504 | 57 | 288 | 1.0 | 2.0 | 0.01 | 0.10 | 0.10 | 86 | 1014.3 |
| 20260502011003 | 57 | 267 | 1.0 | 2.0 | 0.01 | 0.10 | 0.10 | 86 | 1014.2 |
| 20260502010503 | 57 | 267 | 1.0 | 2.0 | 0.01 | 0.10 | 0.10 | 86 | 1014.3 |
| 20260502010004 | 57 | 267 | 0.0 | 2.0 | 0.01 | 0.10 | 0.10 | 86 | 1014.2 |
| 20260502005503 | 57 | 267 | 0.0 | 2.0 | 0.01 | 0.10 | 0.10 | 87 | 1014.3 |
| 20260502005005 | 57 | 267 | 1.0 | 2.0 | 0.01 | 0.10 | 0.10 | 87 | 1014.1 |
| 20260502004506 | 57 | 267 | 0.0 | 3.0 | 0.01 | 0.10 | 0.10 | 87 | 1014.0 |
| 20260502004008 | 57 | 267 | 2.0 | 3.0 | 0.01 | 0.10 | 0.10 | 86 | 1013.9 |
| 20260502003502 | 57 | 269 | 1.0 | 3.0 | 0.01 | 0.10 | 0.10 | 86 | 1013.9 |
| 20260502003007 | 57 | 268 | 2.0 | 2.0 | 0.01 | 0.10 | 0.10 | 86 | 1013.8 |
| 20260502002504 | 57 | 314 | 0.0 | 2.0 | 0.01 | 0.10 | 0.10 | 85 | 1013.7 |
| 20260502002003 | 57 | 314 | 1.0 | 2.0 | 0.01 | 0.10 | 0.10 | 85 | 1013.6 |
| 20260502001505 | 57 | 314 | 1.0 | 2.0 | 0.00 | 0.09 | 0.09 | 85 | 1013.5 |
| 20260502001003 | 57 | 314 | 1.0 | 3.0 | 0.00 | 0.09 | 0.09 | 85 | 1013.4 |
| 20260502000503 | 58 | 300 | 2.0 | 3.0 | 0.00 | 0.09 | 0.09 | 85 | 1013.3 |
| 20260502000005 | 58 | 288 | 2.0 | 2.0 | 0.00 | 0.09 | 0.09 | 85 | 1013.4 |
| 20260501235503 | 58 | 300 | 0.0 | 0.0 | 0.00 | 0.09 | 0.09 | 84 | 1013.4 |
| 20260501235002 | 58 | 73 | 0.0 | 0.0 | 0.00 | 0.09 | 0.09 | 84 | 1013.3 |
| 20260501234506 | 58 | 73 | 0.0 | 0.0 | 0.00 | 0.09 | 0.09 | 84 | 1013.2 |
| 20260501234004 | 58 | 73 | 0.0 | 0.0 | 0.00 | 0.09 | 0.09 | 84 | 1013.2 |
| 20260501233511 | 58 | 73 | 0.0 | 2.0 | 0.00 | 0.09 | 0.09 | 84 | 1013.2 |
| 20260501233007 | 58 | 73 | 0.0 | 2.0 | 0.00 | 0.09 | 0.09 | 84 | 1013.2 |
| 20260501232506 | 58 | 73 | 0.0 | 2.0 | 0.00 | 0.09 | 0.09 | 84 | 1013.1 |
| 20260501232007 | 58 | 73 | 0.0 | 2.0 | 0.00 | 0.09 | 0.09 | 83 | 1013.0 |
| 20260501231512 | 59 | 73 | 0.0 | 2.0 | 0.00 | 0.09 | 0.09 | 84 | 1013.0 |
| 20260501231007 | 59 | 73 | 0.0 | 2.0 | 0.00 | 0.09 | 0.09 | 84 | 1012.9 |
| 20260501230503 | 59 | 73 | 1.0 | 1.0 | 0.00 | 0.09 | 0.09 | 84 | 1012.8 |
| 20260501230005 | 59 | 73 | 0.0 | 2.0 | 0.00 | 0.09 | 0.09 | 83 | 1012.9 |
| 20260501225504 | 59 | 73 | 0.0 | 2.0 | 0.00 | 0.09 | 0.09 | 83 | 1012.9 |
| 20260501225004 | 59 | 73 | 1.0 | 1.0 | 0.00 | 0.09 | 0.09 | 83 | 1013.0 |
| 20260501224504 | 59 | 73 | 0.0 | 1.0 | 0.00 | 0.09 | 0.09 | 83 | 1012.9 |
| 20260501224004 | 59 | 73 | 0.0 | 2.0 | 0.00 | 0.09 | 0.09 | 82 | 1012.9 |
| 20260501223508 | 59 | 73 | 1.0 | 2.0 | 0.00 | 0.09 | 0.09 | 82 | 1012.9 |
| 20260501223008 | 59 | 73 | 1.0 | 3.0 | 0.00 | 0.09 | 0.09 | 81 | 1012.8 |
| 20260501222509 | 59 | 73 | 2.0 | 3.0 | 0.00 | 0.09 | 0.09 | 82 | 1012.8 |
| 20260501222004 | 59 | 73 | 1.0 | 2.0 | 0.00 | 0.09 | 0.09 | 81 | 1012.8 |
| 20260501221511 | 59 | 73 | 1.0 | 2.0 | 0.00 | 0.09 | 0.09 | 82 | 1012.8 |
| 20260501221008 | 60 | 73 | 1.0 | 2.0 | 0.00 | 0.09 | 0.09 | 81 | 1012.8 |
| 20260501220503 | 60 | 73 | 1.0 | 2.0 | 0.00 | 0.09 | 0.09 | 81 | 1013.0 |
| 20260501220016 | 60 | 73 | 0.0 | 2.0 | 0.00 | 0.09 | 0.09 | 80 | 1013.2 |
| 20260501215504 | 60 | 73 | 1.0 | 2.0 | 0.00 | 0.09 | 0.09 | 79 | 1013.1 |
| 20260501215003 | 60 | 73 | 1.0 | 2.0 | 0.00 | 0.09 | 0.09 | 80 | 1013.0 |
| 20260501214515 | 60 | 73 | 0.0 | 3.0 | 0.00 | 0.09 | 0.09 | 76 | 1013.2 |
| 20260501214002 | 60 | 73 | 2.0 | 3.0 | 0.00 | 0.09 | 0.09 | 78 | 1013.1 |
| 20260501213502 | 61 | 73 | 0.0 | 2.0 | 0.00 | 0.09 | 0.09 | 75 | 1012.9 |
| 20260501213008 | 61 | 73 | 1.0 | 3.0 | 0.00 | 0.09 | 0.09 | 76 | 1012.9 |
| 20260501212504 | 61 | 73 | 0.0 | 7.0 | 0.00 | 0.09 | 0.09 | 74 | 1012.8 |
| 20260501212004 | 61 | 73 | 2.0 | 7.0 | 0.00 | 0.09 | 0.09 | 72 | 1012.6 |
| 20260501211518 | 62 | 74 | 3.0 | 5.0 | 0.00 | 0.09 | 0.09 | 72 | 1012.7 |
| 20260501211004 | 62 | 50 | 3.0 | 5.0 | 0.00 | 0.09 | 0.09 | 70 | 1012.8 |
| 20260501210505 | 62 | 40 | 2.0 | 3.0 | 0.00 | 0.09 | 0.09 | 72 | 1012.7 |
| 20260501210008 | 62 | 92 | 2.0 | 3.0 | 0.00 | 0.09 | 0.09 | 72 | 1012.8 |
| 20260501205508 | 62 | 57 | 2.0 | 3.0 | 0.00 | 0.09 | 0.09 | 72 | 1012.8 |
| 20260501205004 | 61 | 9 | 1.0 | 2.0 | 0.01 | 0.09 | 0.09 | 72 | 1013.1 |
| 20260501204506 | 61 | 9 | 1.0 | 4.0 | 0.01 | 0.09 | 0.09 | 76 | 1013.3 |
| 20260501204007 | 61 | 9 | 1.0 | 4.0 | 0.01 | 0.09 | 0.09 | 73 | 1013.6 |
| 20260501203504 | 61 | 338 | 1.0 | 3.0 | 0.01 | 0.09 | 0.09 | 74 | 1013.9 |
| 20260501203007 | 61 | 43 | 2.0 | 3.0 | 0.01 | 0.09 | 0.09 | 75 | 1013.9 |
| 20260501202504 | 61 | 43 | 1.0 | 4.0 | 0.01 | 0.09 | 0.09 | 76 | 1014.0 |